[[{"header":{"parameterUnit":"m.s-1","parameterCategory":1,"la1":30.2991,"la2":30.254,"lo1":-89.0895,"lo2":-89.0444,"dy":0.0017,"dx":0.0017,"nx":28,"ny":28,"refTime":"2024-10-05T21:00:00:Z","depth":0,"parameterNumber":2,"parameterNumberName":"U-component_of_WINDS"},"data":[0,0,0,0,0,0,0,0,0,0,0,0,0,0,0,0,0,0,0,0,0,0,0,0,0,0,0,0,0,0,0,0,0,0,0,0,0,0,0,0,0,0,0,0,0,0,0,0,0,0,0,0,0,0,0,0,0,0,-1.7972,-1.7973,0,-1.8067,-1.8068,-1.807,-1.7974,-1.797,-1.7966,-1.7963,-1.8071,-1.8077,-1.8084,0,0,0,0,0,0,0,0,0,0,0,0,0,-1.7715,-1.772,-1.7971,-1.7973,-1.7974,-1.8067,-1.8068,-1.807,-1.7974,-1.797,-1.7965,-1.7961,-1.8069,-1.8076,-1.8084,0,0,0,0,0,0,0,0,0,0,0,0,0,-1.7821,-1.7722,-1.7971,-1.7937,-1.7935,-1.8067,-1.8069,-1.807,-1.7975,-1.797,-1.7964,-1.7959,-1.8066,-1.8076,-1.8085,-1.8258,0,0,-1.8115,-1.8119,0,0,0,0,0,0,0,0,-1.7815,-1.783,-1.7941,-1.794,-1.7938,-1.8002,-1.8018,-1.8134,-1.7977,-1.7961,-1.7963,-1.7956,-1.8054,-1.8064,-1.8095,-1.8263,-1.8268,-1.8115,-1.8121,-1.8125,-1.8128,0,0,0,0,0,0,0,-1.7807,-1.7825,-1.801,-1.7943,-1.7941,-1.792,-1.7929,-1.8039,-1.8038,-1.7962,-1.7955,-1.7967,-1.8052,-1.8086,-1.8096,-1.827,-1.8115,-1.8124,-1.813,-1.8133,-1.8589,-1.8595,0,0,0,0,0,0,-1.7803,-1.782,-1.8007,-1.8012,-1.7861,-1.7929,-1.7939,-1.7988,-1.8036,-1.8038,-1.7972,-1.7962,-1.8072,-1.8085,-1.81,-1.8309,-1.8125,-1.8134,-1.814,-1.8582,-1.859,-1.8597,0,0,0,0,0,0,-1.7797,-1.782,-1.8003,-1.7914,-1.7936,-1.794,-1.7995,-1.7993,-1.8026,-1.8044,-1.8044,-1.8006,-1.8068,-1.8086,-1.822,-1.8311,-1.8139,-1.8147,-1.8575,-1.8585,-1.8594,-1.8727,0,0,0,0,0,0,-1.779,-1.7819,-1.7883,-1.7916,-1.7941,-1.8119,-1.8001,-1.7999,-1.8042,-1.8031,-1.8076,-1.8079,-1.8065,-1.8206,-1.8229,-1.8322,-1.8155,-1.8567,-1.8579,-1.8591,-1.8715,-1.874,-1.8762,0,0,0,0,0,-1.7782,-1.7918,-1.7886,-1.7909,-1.802,-1.8124,-1.8138,-1.8117,-1.805,-1.8116,-1.8127,-1.8077,-1.8296,-1.822,-1.8246,-1.8343,-1.8561,-1.8576,-1.859,-1.8704,-1.8735,-1.8761,0,0,0,0,0,0,-1.7899,-1.7922,-1.7887,-1.8038,-1.8079,-1.8108,-1.819,-1.815,-1.8214,-1.8201,-1.8174,-1.8186,-1.8328,-1.8347,-1.8262,-1.8514,-1.8418,-1.8438,-1.8497,-1.8526,-1.8549,-1.8544,-1.8163,0,0,0,0,0,-1.7941,-1.802,-1.8037,-1.8169,-1.8191,-1.8187,-1.8231,-1.8211,-1.8254,-1.8272,-1.8293,-1.834,-1.842,-1.8473,-1.8547,-1.8715,-1.8726,-1.8794,-1.8818,-1.8837,-1.8857,-1.8951,-1.8982,-1.8644,-1.8644,-1.8643,0,0,-1.8032,-1.8054,-1.8106,-1.8193,-1.8223,-1.8309,-1.8203,-1.8298,-1.8363,-1.8288,-1.8416,-1.8432,-1.8483,-1.8635,-1.8703,-1.8657,-1.8951,-1.8855,-1.887,-1.888,-1.8969,-1.9001,-1.9029,-1.8653,-1.8652,-1.865,0,0,-1.8241,-1.8264,-1.8378,-1.8409,-1.8454,-1.845,-1.8477,-1.8512,-1.8519,-1.8645,-1.8592,-1.8669,-1.8806,-1.8845,-1.8883,-1.9106,-1.9065,-1.9131,-1.9256,-1.9348,-1.9375,-1.9399,-1.9483,-1.9513,-1.9149,-1.9149,-1.915,0,-1.835,-1.8474,-1.8442,-1.8541,-1.8583,-1.8514,-1.8631,-1.8664,-1.8733,-1.8765,-1.8709,-1.888,-1.8909,-1.9071,-1.9126,-1.9157,-1.9191,-1.9128,-1.9373,-1.9397,-1.9418,-1.9499,-1.953,-1.9158,-1.9157,-1.9156,-1.9155,0,-1.8607,-1.8694,-1.8781,-1.8846,-1.8896,-1.9004,-1.8992,-1.9047,-1.9021,-1.9025,-1.9156,-1.9187,-1.9268,-1.9304,-1.9281,-1.9464,-1.9434,-1.9376,-1.9281,-1.9459,-1.9535,-1.9565,-1.9169,-1.9166,-1.9164,-1.9162,0,0,-1.8898,-1.8941,-1.8975,-1.9004,-1.9048,-1.9117,-1.9222,-1.9297,-1.9348,-1.9396,-1.9488,-1.9604,-1.9551,-1.9594,-1.9574,-1.9654,-1.9835,-1.9587,-1.9588,-1.9637,-2.0044,-2.0091,-2.0127,-1.9804,-1.981,-1.9814,-2.0041,0,-1.9113,-1.9293,-1.9267,-1.9442,-1.9525,-1.946,-1.9552,-1.9592,-1.9597,-1.967,-1.9676,-1.9761,-1.9682,-1.9708,-1.9784,-1.9797,-1.9917,-1.9779,-1.9895,-1.9899,-1.9889,-2.0165,-2.0215,-2.0428,-2.007,-2.0075,-2.0078,0,-1.9388,-1.9445,-1.9628,-1.966,-1.9694,-1.9777,-1.9845,-1.9914,-1.9957,-1.9956,-2.0003,-1.9969,-2.0078,-1.9976,-2.0129,-2.0036,-2.0081,-2.0094,-2.0102,-2.0117,-2.0004,-2.0193,-2.0494,-2.0529,-2.0123,-2.012,-2.0117,0,-1.9589,-1.971,-1.9836,-1.9862,-1.9902,-1.9962,-1.9982,-2.0019,-2.0067,-2.0126,-2.0158,-2.023,-2.0272,-2.033,-2.0318,-2.0244,-2.0477,-2.0372,-2.0483,-2.0484,-2.054,-2.0537,-2.0859,-2.0559,-2.0559,-2.0558,-2.0558,0,-1.9834,-1.9951,-1.9926,-2.0005,-2.0133,-2.0102,-2.0232,-2.0244,-2.0277,-2.036,-2.0307,-2.0386,-2.0362,-2.0441,-2.0432,-2.0563,-2.0581,-2.0586,-2.0583,-2.0594,-2.0594,-2.0627,-2.0615,-2.0567,-2.0565,-2.0563,-2.0562,0,-2.0083,-2.007,-2.0204,-2.0229,-2.0238,-2.0332,-2.0355,-2.0431,-2.043,-2.0535,-2.0558,-2.0559,-2.0649,-2.064,-2.0742,-2.0736,-2.0899,-2.0876,-2.0885,-2.0882,-2.0994,-2.0986,-2.1353,-2.1401,-2.1066,-2.1069,-2.1072,0,-2.0243,-2.0331,-2.0364,-2.0413,-2.0437,-2.0517,-2.0565,-2.0537,-2.0589,-2.0645,-2.0715,-2.0799,-2.0866,-2.1013,-2.1026,-2.1104,-2.1086,-2.1208,-2.1098,-2.1106,-2.1094,-2.1091,-2.1102,-2.1233,-2.1236,-2.1239,-2.1242,0,-2.0531,-2.052,-2.0589,-2.0656,-2.0713,-2.0765,-2.0813,-2.0857,-2.0834,-2.0896,-2.0986,-2.1037,-2.1139,-2.1226,-2.1299,-2.1323,-2.1282,-2.1276,-2.1306,-2.1321,-2.1324,-2.1329,-2.095,-2.1269,-2.1266,-2.1264,-2.1263,-2.1262,-2.0744,-2.082,-2.0855,-2.0934,-2.0965,-2.1011,-2.1083,-2.109,-2.1163,-2.1243,-2.1222,-2.1325,-2.1367,-2.1462,-2.1493,-2.1575,-2.1531,-2.1574,-2.1586,-2.1599,-2.1614,-2.1306,-2.1588,-2.1587,-2.1586,-2.1585,-2.1585,0,-2.1034,-2.1053,-2.1125,-2.1191,-2.1254,-2.1202,-2.1252,-2.131,-2.1399,-2.1441,-2.1506,-2.1611,-2.1694,-2.1711,-2.1791,-2.1854,-2.1837,-2.1877,-2.1875,-2.1882,-2.1647,-2.1614,-2.1889,-2.1889,-2.1889,-2.1889,-2.1889,-2.1889,-2.1193,-2.1319,-2.1312,-2.1455,-2.1473,-2.1571,-2.1604,-2.1647,-2.168,-2.1798,-2.1865,-2.1874,-2.1907,-2.1989,-2.2064,-2.2067,-2.2102,-2.2151,-2.2147,-2.1928,-2.1898,-2.1869,-2.1839,-2.2157,-2.2157,-2.2376,-2.2378,-2.238]},{"header":{"parameterUnit":"m.s-1","parameterCategory":1,"la1":30.2991,"la2":30.254,"lo1":-89.0895,"lo2":-89.0444,"dy":0.0017,"dx":0.0017,"nx":28,"ny":28,"refTime":"2024-10-05T21:00:00:Z","depth":0,"parameterNumber":3,"parameterNumberName":"V-component_of_WINDS"},"data":[0,0,0,0,0,0,0,0,0,0,0,0,0,0,0,0,0,0,0,0,0,0,0,0,0,0,0,0,0,0,0,0,0,0,0,0,0,0,0,0,0,0,0,0,0,0,0,0,0,0,0,0,0,0,0,0,0,0,-2.1784,-2.1785,0,-2.1827,-2.1827,-2.1827,-2.1832,-2.1832,-2.1831,-2.1831,-2.1871,-2.1873,-2.1874,0,0,0,0,0,0,0,0,0,0,0,0,0,-2.1703,-2.1705,-2.1784,-2.1785,-2.1785,-2.1826,-2.1827,-2.1828,-2.1832,-2.1832,-2.1831,-2.1831,-2.1871,-2.1873,-2.1874,0,0,0,0,0,0,0,0,0,0,0,0,0,-2.1741,-2.1705,-2.1784,-2.1793,-2.1794,-2.1826,-2.1827,-2.1828,-2.1832,-2.1832,-2.1831,-2.183,-2.187,-2.1872,-2.1875,-2.1901,0,0,-2.1881,-2.1882,0,0,0,0,0,0,0,0,-2.1739,-2.1744,-2.1791,-2.1792,-2.1793,-2.1823,-2.1813,-2.1852,-2.1832,-2.1818,-2.1831,-2.183,-2.1856,-2.1859,-2.1868,-2.1903,-2.1904,-2.1881,-2.1883,-2.1884,-2.1884,0,0,0,0,0,0,0,-2.1737,-2.1742,-2.1801,-2.1791,-2.1793,-2.1793,-2.1798,-2.1821,-2.1839,-2.1819,-2.1819,-2.1824,-2.1856,-2.1866,-2.1869,-2.1905,-2.1881,-2.1883,-2.1885,-2.1886,-2.1961,-2.1962,0,0,0,0,0,0,-2.1733,-2.174,-2.1799,-2.1802,-2.1764,-2.1795,-2.18,-2.1814,-2.1839,-2.1843,-2.1825,-2.1824,-2.1863,-2.1867,-2.1871,-2.1902,-2.1884,-2.1886,-2.1887,-2.1961,-2.1962,-2.1962,0,0,0,0,0,0,-2.1731,-2.1738,-2.1798,-2.1771,-2.1779,-2.1797,-2.1813,-2.1816,-2.1825,-2.1844,-2.1847,-2.1832,-2.1862,-2.1868,-2.1893,-2.1904,-2.1887,-2.1889,-2.196,-2.1961,-2.1962,-2.1966,0,0,0,0,0,0,-2.1729,-2.1737,-2.1749,-2.1772,-2.178,-2.1821,-2.1814,-2.1817,-2.183,-2.1829,-2.1851,-2.1854,-2.1862,-2.189,-2.1895,-2.1906,-2.189,-2.1959,-2.196,-2.1962,-2.1965,-2.1967,-2.1969,0,0,0,0,0,-2.1726,-2.1748,-2.1749,-2.1756,-2.1795,-2.1821,-2.1826,-2.1836,-2.1831,-2.1841,-2.1853,-2.1853,-2.1902,-2.1892,-2.1899,-2.1911,-2.1958,-2.196,-2.1962,-2.1964,-2.1967,-2.1969,0,0,0,0,0,0,-2.1724,-2.1751,-2.1753,-2.1783,-2.18,-2.1822,-2.1836,-2.1838,-2.1857,-2.1856,-2.1866,-2.1871,-2.1896,-2.1906,-2.1895,-2.1937,-2.1929,-2.1932,-2.1929,-2.1932,-2.1934,-2.193,-2.1892,0,0,0,0,0,-2.1728,-2.1748,-2.177,-2.1794,-2.1802,-2.1818,-2.1829,-2.1836,-2.1853,-2.186,-2.1874,-2.189,-2.1909,-2.1921,-2.1939,-2.1966,-2.1971,-2.1978,-2.1979,-2.1981,-2.1983,-2.1997,-2.2,-2.1967,-2.1967,-2.1967,0,0,-2.1734,-2.1751,-2.1763,-2.1794,-2.1808,-2.1828,-2.1824,-2.1845,-2.1859,-2.1863,-2.1888,-2.1899,-2.1917,-2.1944,-2.1956,-2.1953,-2.1993,-2.1983,-2.1984,-2.1986,-2.1999,-2.2002,-2.2005,-2.1969,-2.1968,-2.1968,0,0,-2.1757,-2.1772,-2.1794,-2.1808,-2.1829,-2.1839,-2.1844,-2.1866,-2.1873,-2.1899,-2.1902,-2.1918,-2.1951,-2.1964,-2.1974,-2.2001,-2.2002,-2.2006,-2.2016,-2.203,-2.2032,-2.2035,-2.2043,-2.2046,-2.2008,-2.2008,-2.2008,0,-2.1762,-2.1793,-2.1804,-2.1825,-2.1838,-2.1843,-2.1864,-2.1877,-2.1903,-2.1911,-2.1907,-2.1948,-2.1961,-2.199,-2.1996,-2.2005,-2.201,-2.2004,-2.2031,-2.2034,-2.2036,-2.2044,-2.2048,-2.2009,-2.2009,-2.2009,-2.2009,0,-2.1798,-2.1819,-2.1834,-2.186,-2.1874,-2.1895,-2.1908,-2.1921,-2.1926,-2.1935,-2.196,-2.1976,-2.1997,-2.2005,-2.2009,-2.2034,-2.2031,-2.2029,-2.2022,-2.2039,-2.2047,-2.2051,-2.2009,-2.2009,-2.2009,-2.2009,0,0,-2.1821,-2.1852,-2.1857,-2.1869,-2.1892,-2.1908,-2.1929,-2.1951,-2.1961,-2.1978,-2.1995,-2.2022,-2.202,-2.2032,-2.2038,-2.205,-2.2069,-2.2047,-2.2047,-2.205,-2.2096,-2.2097,-2.2101,-2.207,-2.2071,-2.2071,-2.2095,0,-2.1845,-2.1884,-2.1894,-2.1925,-2.1945,-2.1949,-2.1967,-2.1983,-2.1992,-2.2009,-2.2019,-2.2038,-2.2034,-2.2041,-2.2054,-2.2064,-2.2078,-2.2063,-2.2084,-2.2085,-2.2079,-2.2105,-2.2107,-2.2128,-2.2098,-2.2098,-2.2099,0,-2.1879,-2.1898,-2.1932,-2.1953,-2.1961,-2.1977,-2.1997,-2.2013,-2.2031,-2.2037,-2.205,-2.2055,-2.2075,-2.2067,-2.2094,-2.2083,-2.2092,-2.2099,-2.21,-2.2102,-2.2093,-2.2107,-2.2135,-2.2138,-2.2104,-2.2103,-2.2103,0,-2.1892,-2.1925,-2.195,-2.196,-2.1984,-2.1995,-2.2006,-2.2023,-2.2035,-2.2052,-2.206,-2.2078,-2.2089,-2.2103,-2.2111,-2.2105,-2.2138,-2.2131,-2.2142,-2.2142,-2.2149,-2.2148,-2.2178,-2.2155,-2.2155,-2.2155,-2.2155,0,-2.1918,-2.1938,-2.1956,-2.1971,-2.1993,-2.2004,-2.2026,-2.2036,-2.2051,-2.2067,-2.2072,-2.2087,-2.2098,-2.2114,-2.2121,-2.2142,-2.2146,-2.2151,-2.2152,-2.215,-2.215,-2.2156,-2.2155,-2.2156,-2.2156,-2.2156,-2.2156,0,-2.1935,-2.1948,-2.1975,-2.1996,-2.2002,-2.2018,-2.2035,-2.2049,-2.2059,-2.2079,-2.2084,-2.2099,-2.2118,-2.2128,-2.2152,-2.2156,-2.2179,-2.218,-2.2174,-2.2175,-2.2185,-2.2184,-2.222,-2.2225,-2.22,-2.22,-2.22,0,-2.1951,-2.1967,-2.199,-2.2002,-2.2013,-2.2031,-2.2044,-2.2055,-2.2067,-2.2088,-2.2099,-2.2118,-2.2134,-2.2164,-2.2176,-2.2194,-2.2195,-2.2206,-2.2197,-2.2194,-2.2194,-2.2193,-2.2194,-2.2207,-2.2208,-2.2208,-2.2208,0,-2.1977,-2.1983,-2.2001,-2.2022,-2.2036,-2.2053,-2.2069,-2.2078,-2.2091,-2.2104,-2.2124,-2.2137,-2.2161,-2.218,-2.2198,-2.2208,-2.221,-2.2211,-2.2214,-2.2212,-2.2207,-2.2209,-2.2178,-2.221,-2.221,-2.2209,-2.2209,-2.2209,-2.1994,-2.2008,-2.2027,-2.2046,-2.206,-2.2074,-2.2089,-2.21,-2.2117,-2.2138,-2.2143,-2.2164,-2.2179,-2.2205,-2.2215,-2.223,-2.2228,-2.2233,-2.2234,-2.2235,-2.2235,-2.2205,-2.2234,-2.2234,-2.2234,-2.2233,-2.2233,0,-2.202,-2.2032,-2.205,-2.2073,-2.2088,-2.209,-2.2107,-2.212,-2.2138,-2.2153,-2.2169,-2.2191,-2.2209,-2.2223,-2.2241,-2.225,-2.2252,-2.2255,-2.2254,-2.2256,-2.2237,-2.2232,-2.2253,-2.2253,-2.2253,-2.2253,-2.2253,-2.2253,-2.2035,-2.2059,-2.2066,-2.2096,-2.2108,-2.2129,-2.2139,-2.2152,-2.2164,-2.2189,-2.2204,-2.2213,-2.2227,-2.2246,-2.2262,-2.2265,-2.2271,-2.2274,-2.2277,-2.2259,-2.2257,-2.2255,-2.225,-2.2275,-2.2275,-2.2295,-2.2295,-2.2295]}]]